Year,Month,Day,Hour,Minute,Value (Times are PST for temperature in C)
2011,02,25,00,00,-3.10
2011,02,25,00,01,-3.10
2011,02,25,00,02,-3.10
2011,02,25,00,03,-3.10
2011,02,25,00,04,-3.10
2011,02,25,00,05,-3.10
2011,02,25,00,06,-3.10
2011,02,25,00,07,-3.10
2011,02,25,00,08,-3.20
2011,02,25,00,09,-3.20
2011,02,25,00,10,-3.20
2011,02,25,00,11,-3.20
2011,02,25,00,12,-3.20
2011,02,25,00,13,-3.20
2011,02,25,00,14,-3.20
2011,02,25,00,15,-3.20
2011,02,25,00,16,-3.20
2011,02,25,00,17,-3.20
2011,02,25,00,18,-3.20
2011,02,25,00,19,-3.20
2011,02,25,00,20,-3.20
2011,02,25,00,21,-3.30
2011,02,25,00,22,-3.30
2011,02,25,00,23,-3.30
2011,02,25,00,24,-3.30
2011,02,25,00,25,-3.30
2011,02,25,00,26,-3.40
2011,02,25,00,27,-3.40
2011,02,25,00,28,-3.40
2011,02,25,00,29,-3.40
2011,02,25,00,30,-3.40
2011,02,25,00,31,-3.40
2011,02,25,00,32,-3.40
2011,02,25,00,33,-3.40
2011,02,25,00,34,-3.40
2011,02,25,00,35,-3.40
2011,02,25,00,36,-3.40
2011,02,25,00,37,-3.40
2011,02,25,00,38,-3.40
2011,02,25,00,39,-3.30
2011,02,25,00,40,-3.30
2011,02,25,00,41,-3.30
2011,02,25,00,42,-3.30
2011,02,25,00,43,-3.30
2011,02,25,00,44,-3.30
2011,02,25,00,45,-3.30
2011,02,25,00,46,-3.30
2011,02,25,00,47,-3.30
2011,02,25,00,48,-3.30
2011,02,25,00,49,-3.30
2011,02,25,00,50,-3.30
2011,02,25,00,51,-3.30
2011,02,25,00,52,-3.30
2011,02,25,00,53,-3.30
2011,02,25,00,54,-3.30
2011,02,25,00,55,-3.30
2011,02,25,00,56,-3.40
2011,02,25,00,57,-3.40
2011,02,25,00,58,-3.40
2011,02,25,00,59,-3.40
2011,02,25,01,00,-3.40
2011,02,25,01,01,-3.40
2011,02,25,01,02,-3.40
2011,02,25,01,03,-3.40
2011,02,25,01,04,-3.40
2011,02,25,01,05,-3.40
2011,02,25,01,06,-3.40
2011,02,25,01,07,-3.40
2011,02,25,01,08,-3.40
2011,02,25,01,09,-3.40
2011,02,25,01,10,-3.40
2011,02,25,01,11,-3.30
2011,02,25,01,12,-3.30
2011,02,25,01,13,-3.30
2011,02,25,01,14,-3.30
2011,02,25,01,15,-3.30
2011,02,25,01,16,-3.30
2011,02,25,01,17,-3.30
2011,02,25,01,18,-3.30
2011,02,25,01,19,-3.30
2011,02,25,01,20,-3.30
2011,02,25,01,21,-3.30
2011,02,25,01,22,-3.30
2011,02,25,01,23,-3.30
2011,02,25,01,24,-3.30
2011,02,25,01,25,-3.30
2011,02,25,01,26,-3.30
2011,02,25,01,27,-3.30
2011,02,25,01,28,-3.40
2011,02,25,01,29,-3.40
2011,02,25,01,30,-3.40
2011,02,25,01,31,-3.40
2011,02,25,01,32,-3.40
2011,02,25,01,33,-3.40
2011,02,25,01,34,-3.40
2011,02,25,01,35,-3.40
2011,02,25,01,36,-3.40
2011,02,25,01,37,-3.40
2011,02,25,01,38,-3.40
2011,02,25,01,39,-3.40
2011,02,25,01,40,-3.40
2011,02,25,01,41,-3.40
2011,02,25,01,42,-3.40
2011,02,25,01,43,-3.40
2011,02,25,01,44,-3.40
2011,02,25,01,45,-3.40
2011,02,25,01,46,-3.40
2011,02,25,01,47,-3.40
2011,02,25,01,48,-3.40
2011,02,25,01,49,-3.40
2011,02,25,01,50,-3.50
2011,02,25,01,51,-3.50
2011,02,25,01,52,-3.50
2011,02,25,01,53,-3.60
2011,02,25,01,54,-3.60
2011,02,25,01,55,-3.60
2011,02,25,01,56,-3.60
2011,02,25,01,57,-3.60
2011,02,25,01,58,-3.60
2011,02,25,01,59,-3.60
2011,02,25,02,00,-3.60
2011,02,25,02,01,-3.60
2011,02,25,02,02,-3.60
2011,02,25,02,03,-3.60
2011,02,25,02,04,-3.60
2011,02,25,02,05,-3.60
2011,02,25,02,06,-3.60
2011,02,25,02,07,-3.60
2011,02,25,02,08,-3.60
2011,02,25,02,09,-3.60
2011,02,25,02,10,-3.60
2011,02,25,02,11,-3.60
2011,02,25,02,12,-3.60
2011,02,25,02,13,-3.60
2011,02,25,02,14,-3.70
2011,02,25,02,15,-3.70
2011,02,25,02,16,-3.70
2011,02,25,02,17,-3.70
2011,02,25,02,18,-3.70
2011,02,25,02,19,-3.70
2011,02,25,02,20,-3.70
2011,02,25,02,21,-3.70
2011,02,25,02,22,-3.70
2011,02,25,02,23,-3.70
2011,02,25,02,24,-3.70
2011,02,25,02,25,-3.70
2011,02,25,02,26,-3.70
2011,02,25,02,27,-3.80
2011,02,25,02,28,-3.80
2011,02,25,02,29,-3.80
2011,02,25,02,30,-3.80
2011,02,25,02,31,-3.80
2011,02,25,02,32,-3.80
2011,02,25,02,33,-3.80
2011,02,25,02,34,-3.80
2011,02,25,02,35,-3.80
2011,02,25,02,36,-3.80
2011,02,25,02,37,-3.80
2011,02,25,02,38,-3.80
2011,02,25,02,39,-3.80
2011,02,25,02,40,-3.80
2011,02,25,02,41,-3.80
2011,02,25,02,42,-3.80
2011,02,25,02,43,-3.80
2011,02,25,02,44,-3.80
2011,02,25,02,45,-3.80
2011,02,25,02,46,-3.80
2011,02,25,02,47,-3.80
2011,02,25,02,48,-3.80
2011,02,25,02,49,-3.80
2011,02,25,02,50,-3.80
2011,02,25,02,51,-3.70
2011,02,25,02,52,-3.70
2011,02,25,02,53,-3.70
2011,02,25,02,54,-3.70
2011,02,25,02,55,-3.80
2011,02,25,02,56,-3.80
2011,02,25,02,57,-3.80
2011,02,25,02,58,-3.80
2011,02,25,02,59,-3.80
2011,02,25,03,00,-3.80
2011,02,25,03,01,-3.80
2011,02,25,03,02,-3.80
2011,02,25,03,03,-3.80
2011,02,25,03,04,-3.80
2011,02,25,03,05,-3.90
2011,02,25,03,06,-3.90
2011,02,25,03,07,-3.90
2011,02,25,03,08,-3.90
2011,02,25,03,09,-3.90
2011,02,25,03,10,-3.90
2011,02,25,03,11,-3.90
2011,02,25,03,12,-3.90
2011,02,25,03,13,-3.90
2011,02,25,03,14,-3.90
2011,02,25,03,15,-3.90
2011,02,25,03,16,-3.90
2011,02,25,03,17,-3.90
2011,02,25,03,18,-3.90
2011,02,25,03,19,-3.90
2011,02,25,03,20,-3.90
2011,02,25,03,21,-3.90
2011,02,25,03,22,-3.90
2011,02,25,03,23,-3.90
2011,02,25,03,24,-3.90
2011,02,25,03,25,-3.90
2011,02,25,03,26,-3.90
2011,02,25,03,27,-3.90
2011,02,25,03,28,-3.90
2011,02,25,03,29,-3.90
2011,02,25,03,30,-3.90
2011,02,25,03,31,-3.90
2011,02,25,03,32,-3.90
2011,02,25,03,33,-3.90
2011,02,25,03,34,-3.90
2011,02,25,03,35,-3.90
2011,02,25,03,36,-3.90
2011,02,25,03,37,-3.90
2011,02,25,03,38,-3.90
2011,02,25,03,39,-3.90
2011,02,25,03,40,-3.90
2011,02,25,03,41,-3.90
2011,02,25,03,42,-3.90
2011,02,25,03,43,-3.90
2011,02,25,03,44,-3.90
2011,02,25,03,45,-3.90
2011,02,25,03,46,-3.90
2011,02,25,03,47,-3.90
2011,02,25,03,48,-3.90
2011,02,25,03,49,-3.90
2011,02,25,03,50,-4.00
2011,02,25,03,51,-4.00
2011,02,25,03,52,-4.00
2011,02,25,03,53,-4.00
2011,02,25,03,54,-4.00
2011,02,25,03,55,-4.00
2011,02,25,03,56,-4.00
2011,02,25,03,57,-4.00
2011,02,25,03,58,-4.00
2011,02,25,03,59,-4.10
2011,02,25,04,00,-4.10
2011,02,25,04,01,-4.10
2011,02,25,04,02,-4.10
2011,02,25,04,03,-4.10
2011,02,25,04,04,-4.10
2011,02,25,04,05,-4.10
2011,02,25,04,06,-4.10
2011,02,25,04,07,-4.10
2011,02,25,04,08,-4.10
2011,02,25,04,09,-4.10
2011,02,25,04,10,-4.10
2011,02,25,04,11,-4.10
2011,02,25,04,12,-4.10
2011,02,25,04,13,-4.10
2011,02,25,04,14,-4.10
2011,02,25,04,15,-4.10
2011,02,25,04,16,-4.20
2011,02,25,04,17,-4.20
2011,02,25,04,18,-4.20
2011,02,25,04,19,-4.20
2011,02,25,04,20,-4.20
2011,02,25,04,21,-4.20
2011,02,25,04,22,-4.20
2011,02,25,04,23,-4.20
2011,02,25,04,24,-4.20
2011,02,25,04,25,-4.20
2011,02,25,04,26,-4.20
2011,02,25,04,27,-4.20
2011,02,25,04,28,-4.20
2011,02,25,04,29,-4.20
2011,02,25,04,30,-4.20
2011,02,25,04,31,-4.20
2011,02,25,04,32,-4.20
2011,02,25,04,33,-4.20
2011,02,25,04,34,-4.20
2011,02,25,04,35,-4.20
2011,02,25,04,36,-4.30
2011,02,25,04,37,-4.20
2011,02,25,04,38,-4.20
2011,02,25,04,39,-4.30
2011,02,25,04,40,-4.30
2011,02,25,04,41,-4.30
2011,02,25,04,42,-4.30
2011,02,25,04,43,-4.30
2011,02,25,04,44,-4.30
2011,02,25,04,45,-4.30
2011,02,25,04,46,-4.30
2011,02,25,04,47,-4.30
2011,02,25,04,48,-4.30
2011,02,25,04,49,-4.30
2011,02,25,04,50,-4.40
2011,02,25,04,51,-4.40
2011,02,25,04,52,-4.40
2011,02,25,04,53,-4.40
2011,02,25,04,54,-4.40
2011,02,25,04,55,-4.40
2011,02,25,04,56,-4.40
2011,02,25,04,57,-4.40
2011,02,25,04,58,-4.40
2011,02,25,04,59,-4.40
2011,02,25,05,00,-4.40
2011,02,25,05,01,-4.40
2011,02,25,05,02,-4.40
2011,02,25,05,03,-4.40
2011,02,25,05,04,-4.40
2011,02,25,05,05,-4.40
2011,02,25,05,06,-4.40
2011,02,25,05,07,-4.40
2011,02,25,05,08,-4.40
2011,02,25,05,09,-4.40
2011,02,25,05,10,-4.40
2011,02,25,05,11,-4.40
2011,02,25,05,12,-4.40
2011,02,25,05,13,-4.40
2011,02,25,05,14,-4.40
2011,02,25,05,15,-4.40
2011,02,25,05,16,-4.40
2011,02,25,05,17,-4.40
2011,02,25,05,18,-4.40
2011,02,25,05,19,-4.40
2011,02,25,05,20,-4.40
2011,02,25,05,21,-4.40
2011,02,25,05,22,-4.40
2011,02,25,05,23,-4.40
2011,02,25,05,24,-4.40
2011,02,25,05,25,-4.40
2011,02,25,05,26,-4.40
2011,02,25,05,27,-4.40
2011,02,25,05,28,-4.40
2011,02,25,05,29,-4.40
2011,02,25,05,30,-4.50
2011,02,25,05,31,-4.50
2011,02,25,05,32,-4.50
2011,02,25,05,33,-4.50
2011,02,25,05,34,-4.50
2011,02,25,05,35,-4.50
2011,02,25,05,36,-4.50
2011,02,25,05,37,-4.50
2011,02,25,05,38,-4.50
2011,02,25,05,39,-4.50
2011,02,25,05,40,-4.50
2011,02,25,05,41,-4.50
2011,02,25,05,42,-4.50
2011,02,25,05,43,-4.50
2011,02,25,05,44,-4.50
2011,02,25,05,45,-4.50
2011,02,25,05,46,-4.50
2011,02,25,05,47,-4.50
2011,02,25,05,48,-4.50
2011,02,25,05,49,-4.50
2011,02,25,05,50,-4.50
2011,02,25,05,51,-4.50
2011,02,25,05,52,-4.50
2011,02,25,05,53,-4.50
2011,02,25,05,54,-4.50
2011,02,25,05,55,-4.50
2011,02,25,05,56,-4.50
2011,02,25,05,57,-4.50
2011,02,25,05,58,-4.50
2011,02,25,05,59,-4.50
2011,02,25,06,00,-4.50
2011,02,25,06,01,-4.50
2011,02,25,06,02,-4.50
2011,02,25,06,03,-4.50
2011,02,25,06,04,-4.40
2011,02,25,06,05,-4.40
2011,02,25,06,06,-4.40
2011,02,25,06,07,-4.40
2011,02,25,06,08,-4.40
2011,02,25,06,09,-4.40
2011,02,25,06,10,-4.40
2011,02,25,06,11,-4.40
2011,02,25,06,12,-4.40
2011,02,25,06,13,-4.40
2011,02,25,06,14,-4.50
2011,02,25,06,15,-4.50
2011,02,25,06,16,-4.50
2011,02,25,06,17,-4.60
2011,02,25,06,18,-4.60
2011,02,25,06,19,-4.60
2011,02,25,06,20,-4.60
2011,02,25,06,21,-4.60
2011,02,25,06,22,-4.60
2011,02,25,06,23,-4.70
2011,02,25,06,24,-4.70
2011,02,25,06,25,-4.70
2011,02,25,06,26,-4.70
2011,02,25,06,27,-4.70
2011,02,25,06,28,-4.70
2011,02,25,06,29,-4.70
2011,02,25,06,30,-4.70
2011,02,25,06,31,-4.70
2011,02,25,06,32,-4.70
2011,02,25,06,33,-4.70
2011,02,25,06,34,-4.70
2011,02,25,06,35,-4.70
2011,02,25,06,36,-4.70
2011,02,25,06,37,-4.70
2011,02,25,06,38,-4.70
2011,02,25,06,39,-4.80
2011,02,25,06,40,-4.70
2011,02,25,06,41,-4.70
2011,02,25,06,42,-4.70
2011,02,25,06,43,-4.70
2011,02,25,06,44,-4.70
2011,02,25,06,45,-4.70
2011,02,25,06,46,-4.70
2011,02,25,06,47,-4.70
2011,02,25,06,48,-4.70
2011,02,25,06,49,-4.70
2011,02,25,06,50,-4.70
2011,02,25,06,51,-4.60
2011,02,25,06,52,-4.60
2011,02,25,06,53,-4.60
2011,02,25,06,54,-4.60
2011,02,25,06,55,-4.60
2011,02,25,06,56,-4.60
2011,02,25,06,57,-4.60
2011,02,25,06,58,-4.60
2011,02,25,06,59,-4.60
2011,02,25,07,00,-4.60
2011,02,25,07,01,-4.60
2011,02,25,07,02,-4.60
2011,02,25,07,03,-4.60
2011,02,25,07,04,-4.60
2011,02,25,07,05,-4.60
2011,02,25,07,06,-4.60
2011,02,25,07,07,-4.60
2011,02,25,07,08,-4.60
2011,02,25,07,09,-4.60
2011,02,25,07,10,-4.60
2011,02,25,07,11,-4.60
2011,02,25,07,12,-4.60
2011,02,25,07,13,-4.60
2011,02,25,07,14,-4.60
2011,02,25,07,15,-4.60
2011,02,25,07,16,-4.60
2011,02,25,07,17,-4.50
2011,02,25,07,18,-4.50
2011,02,25,07,19,-4.60
2011,02,25,07,20,-4.50
2011,02,25,07,21,-4.50
2011,02,25,07,22,-4.50
2011,02,25,07,23,-4.50
2011,02,25,07,24,-4.50
2011,02,25,07,25,-4.60
2011,02,25,07,26,-4.60
2011,02,25,07,27,-4.60
2011,02,25,07,28,-4.60
2011,02,25,07,29,-4.60
2011,02,25,07,30,-4.60
2011,02,25,07,31,-4.60
2011,02,25,07,32,-4.60
2011,02,25,07,33,-4.60
2011,02,25,07,34,-4.60
2011,02,25,07,35,-4.60
2011,02,25,07,36,-4.60
2011,02,25,07,37,-4.60
2011,02,25,07,38,-4.60
2011,02,25,07,39,-4.60
2011,02,25,07,40,-4.60
2011,02,25,07,41,-4.60
2011,02,25,07,42,-4.60
2011,02,25,07,43,-4.60
2011,02,25,07,44,-4.60
2011,02,25,07,45,-4.60
2011,02,25,07,46,-4.60
2011,02,25,07,47,-4.60
2011,02,25,07,48,-4.60
2011,02,25,07,49,-4.60
2011,02,25,07,50,-4.60
2011,02,25,07,51,-4.60
2011,02,25,07,52,-4.70
2011,02,25,07,53,-4.70
2011,02,25,07,54,-4.60
2011,02,25,07,55,-4.60
2011,02,25,07,56,-4.60
2011,02,25,07,57,-4.60
2011,02,25,07,58,-4.60
2011,02,25,07,59,-4.60
2011,02,25,08,00,-4.60
2011,02,25,08,01,-4.60
2011,02,25,08,02,-4.50
2011,02,25,08,03,-4.50
2011,02,25,08,04,-4.50
2011,02,25,08,05,-4.50
2011,02,25,08,06,-4.50
2011,02,25,08,07,-4.50
2011,02,25,08,08,-4.50
2011,02,25,08,09,-4.50
2011,02,25,08,10,-4.50
2011,02,25,08,11,-4.50
2011,02,25,08,12,-4.50
2011,02,25,08,13,-4.40
2011,02,25,08,14,-4.40
2011,02,25,08,15,-4.40
2011,02,25,08,16,-4.40
2011,02,25,08,17,-4.40
2011,02,25,08,18,-4.40
2011,02,25,08,19,-4.40
2011,02,25,08,20,-4.30
2011,02,25,08,21,-4.30
2011,02,25,08,22,-4.30
2011,02,25,08,23,-4.30
2011,02,25,08,24,-4.30
2011,02,25,08,25,-4.30
2011,02,25,08,26,-4.30
2011,02,25,08,27,-4.30
2011,02,25,08,28,-4.30
2011,02,25,08,29,-4.30
2011,02,25,08,30,-4.20
2011,02,25,08,31,-4.20
2011,02,25,08,32,-4.20
2011,02,25,08,33,-4.20
2011,02,25,08,34,-4.20
2011,02,25,08,35,-4.20
2011,02,25,08,36,-4.20
2011,02,25,08,37,-4.20
2011,02,25,08,38,-4.20
2011,02,25,08,39,-4.10
2011,02,25,08,40,-4.10
2011,02,25,08,41,-4.10
2011,02,25,08,42,-4.10
2011,02,25,08,43,-4.10
2011,02,25,08,44,-4.10
2011,02,25,08,45,-4.10
2011,02,25,08,46,-4.10
2011,02,25,08,47,-4.00
2011,02,25,08,48,-4.00
2011,02,25,08,49,-4.00
2011,02,25,08,50,-3.90
2011,02,25,08,51,-3.90
2011,02,25,08,52,-3.90
2011,02,25,08,53,-3.90
2011,02,25,08,54,-3.90
2011,02,25,08,55,-3.90
2011,02,25,08,56,-3.90
2011,02,25,08,57,-3.80
2011,02,25,08,58,-3.80
2011,02,25,08,59,-3.80
2011,02,25,09,00,-3.80
2011,02,25,09,01,-3.80
2011,02,25,09,02,-3.80
2011,02,25,09,03,-3.80
2011,02,25,09,04,-3.70
2011,02,25,09,05,-3.70
2011,02,25,09,06,-3.70
2011,02,25,09,07,-3.70
2011,02,25,09,08,-3.60
2011,02,25,09,09,-3.60
2011,02,25,09,10,-3.60
2011,02,25,09,11,-3.60
2011,02,25,09,12,-3.60
2011,02,25,09,13,-3.60
2011,02,25,09,14,-3.50
2011,02,25,09,15,-3.50
2011,02,25,09,16,-3.50
2011,02,25,09,17,-3.40
2011,02,25,09,18,-3.40
2011,02,25,09,19,-3.40
2011,02,25,09,20,-3.40
2011,02,25,09,21,-3.40
2011,02,25,09,22,-3.40
2011,02,25,09,23,-3.40
2011,02,25,09,24,-3.40
2011,02,25,09,25,-3.30
2011,02,25,09,26,-3.30
2011,02,25,09,27,-3.30
2011,02,25,09,28,-3.30
2011,02,25,09,29,-3.30
2011,02,25,09,30,-3.30
2011,02,25,09,31,-3.40
2011,02,25,09,32,-3.40
2011,02,25,09,33,-3.40
2011,02,25,09,34,-3.40
2011,02,25,09,35,-3.40
2011,02,25,09,36,-3.40
2011,02,25,09,37,-3.40
2011,02,25,09,38,-3.40
2011,02,25,09,39,-3.40
2011,02,25,09,40,-3.40
2011,02,25,09,41,-3.40
2011,02,25,09,42,-3.40
2011,02,25,09,43,-3.40
2011,02,25,09,44,-3.40
2011,02,25,09,45,-3.40
2011,02,25,09,46,-3.40
2011,02,25,09,47,-3.40
2011,02,25,09,48,-3.40
2011,02,25,09,49,-3.40
2011,02,25,09,50,-3.40
2011,02,25,09,51,-3.40
2011,02,25,09,52,-3.40
2011,02,25,09,53,-3.40
2011,02,25,09,54,-3.30
2011,02,25,09,55,-3.30
2011,02,25,09,56,-3.30
2011,02,25,09,57,-3.30
2011,02,25,09,58,-3.20
2011,02,25,09,59,-3.30
2011,02,25,10,00,-3.30
2011,02,25,10,01,-3.30
2011,02,25,10,02,-3.20
2011,02,25,10,03,-3.20
2011,02,25,10,04,-3.20
2011,02,25,10,05,-3.20
2011,02,25,10,06,-3.30
2011,02,25,10,07,-3.30
2011,02,25,10,08,-3.30
2011,02,25,10,09,-3.20
2011,02,25,10,10,-3.20
2011,02,25,10,11,-3.30
2011,02,25,10,12,-3.30
2011,02,25,10,13,-3.20
2011,02,25,10,14,-3.20
2011,02,25,10,15,-3.20
2011,02,25,10,16,-3.30
2011,02,25,10,17,-3.30
2011,02,25,10,18,-3.30
2011,02,25,10,19,-3.30
2011,02,25,10,20,-3.30
2011,02,25,10,21,-3.30
2011,02,25,10,22,-3.30
2011,02,25,10,23,-3.20
2011,02,25,10,24,-3.20
2011,02,25,10,25,-3.20
2011,02,25,10,26,-3.20
2011,02,25,10,27,-3.20
2011,02,25,10,28,-3.20
2011,02,25,10,29,-3.20
2011,02,25,10,30,-3.10
2011,02,25,10,31,-3.10
2011,02,25,10,32,-3.10
2011,02,25,10,33,-3.00
2011,02,25,10,34,-3.00
2011,02,25,10,35,-2.90
2011,02,25,10,36,-2.90
2011,02,25,10,37,-2.90
2011,02,25,10,38,-2.80
2011,02,25,10,39,-2.80
2011,02,25,10,40,-2.80
2011,02,25,10,41,-2.80
2011,02,25,10,42,-2.80
2011,02,25,10,43,-2.80
2011,02,25,10,44,-2.80
2011,02,25,10,45,-2.80
2011,02,25,10,46,-2.80
2011,02,25,10,47,-2.80
2011,02,25,10,48,-2.80
2011,02,25,10,49,-2.90
2011,02,25,10,50,-2.90
2011,02,25,10,51,-2.90
2011,02,25,10,52,-2.80
2011,02,25,10,53,-2.80
2011,02,25,10,54,-2.80
2011,02,25,10,55,-2.80
2011,02,25,10,56,-2.80
2011,02,25,10,57,-2.80
2011,02,25,10,58,-2.80
2011,02,25,10,59,-2.80
2011,02,25,11,00,-2.80
2011,02,25,11,01,-2.80
2011,02,25,11,02,-2.80
2011,02,25,11,03,-2.80
2011,02,25,11,04,-2.70
2011,02,25,11,05,-2.70
2011,02,25,11,06,-2.60
2011,02,25,11,07,-2.60
2011,02,25,11,08,-2.60
2011,02,25,11,09,-2.60
2011,02,25,11,10,-2.50
2011,02,25,11,11,-2.50
2011,02,25,11,12,-2.50
2011,02,25,11,13,-2.50
2011,02,25,11,14,-2.50
2011,02,25,11,15,-2.60
2011,02,25,11,16,-2.60
2011,02,25,11,17,-2.60
2011,02,25,11,18,-2.60
2011,02,25,11,19,-2.50
2011,02,25,11,20,-2.50
2011,02,25,11,21,-2.50
2011,02,25,11,22,-2.50
2011,02,25,11,23,-2.50
2011,02,25,11,24,-2.50
2011,02,25,11,25,-2.40
2011,02,25,11,26,-2.40
2011,02,25,11,27,-2.30
2011,02,25,11,28,-2.30
2011,02,25,11,29,-2.30
2011,02,25,11,30,-2.30
2011,02,25,11,31,-2.40
2011,02,25,11,32,-2.40
2011,02,25,11,33,-2.40
2011,02,25,11,34,-2.40
2011,02,25,11,35,-2.40
2011,02,25,11,36,-2.30
2011,02,25,11,37,-2.30
2011,02,25,11,38,-2.30
2011,02,25,11,39,-2.20
2011,02,25,11,40,-2.20
2011,02,25,11,41,-2.20
2011,02,25,11,42,-2.20
2011,02,25,11,43,-2.20
2011,02,25,11,44,-2.20
2011,02,25,11,45,-2.20
2011,02,25,11,46,-2.20
2011,02,25,11,47,-2.20
2011,02,25,11,48,-2.20
2011,02,25,11,49,-2.20
2011,02,25,11,50,-2.20
2011,02,25,11,51,-2.20
2011,02,25,11,52,-2.20
2011,02,25,11,53,-2.20
2011,02,25,11,54,-2.20
2011,02,25,11,55,-2.20
2011,02,25,11,56,-2.20
2011,02,25,11,57,-2.20
2011,02,25,11,58,-2.20
2011,02,25,11,59,-2.20
2011,02,25,12,00,-2.30
2011,02,25,12,01,-2.30
2011,02,25,12,02,-2.30
2011,02,25,12,03,-2.20
2011,02,25,12,04,-2.20
2011,02,25,12,05,-2.10
2011,02,25,12,06,-2.10
2011,02,25,12,07,-2.10
2011,02,25,12,08,-2.10
2011,02,25,12,09,-2.20
2011,02,25,12,10,-2.20
2011,02,25,12,11,-2.20
2011,02,25,12,12,-2.20
2011,02,25,12,13,-2.20
2011,02,25,12,14,-2.10
2011,02,25,12,15,-2.10
2011,02,25,12,16,-2.00
2011,02,25,12,17,-2.10
2011,02,25,12,18,-2.10
2011,02,25,12,19,-2.10
2011,02,25,12,20,-2.20
2011,02,25,12,21,-2.20
2011,02,25,12,22,-2.20
2011,02,25,12,23,-2.20
2011,02,25,12,24,-2.20
2011,02,25,12,25,-2.20
2011,02,25,12,26,-2.10
2011,02,25,12,27,-2.10
2011,02,25,12,28,-2.10
2011,02,25,12,29,-2.10
2011,02,25,12,30,-2.10
2011,02,25,12,31,-2.10
2011,02,25,12,32,-2.10
2011,02,25,12,33,-2.10
2011,02,25,12,34,-2.00
2011,02,25,12,35,-2.00
2011,02,25,12,36,-1.90
2011,02,25,12,37,-1.90
2011,02,25,12,38,-1.90
2011,02,25,12,39,-1.90
2011,02,25,12,40,-1.90
2011,02,25,12,41,-1.90
2011,02,25,12,42,-1.90
2011,02,25,12,43,-1.90
2011,02,25,12,44,-1.80
2011,02,25,12,45,-1.80
2011,02,25,12,46,-1.70
2011,02,25,12,47,-1.60
2011,02,25,12,48,-1.60
2011,02,25,12,49,-1.60
2011,02,25,12,50,-1.60
2011,02,25,12,51,-1.60
2011,02,25,12,52,-1.60
2011,02,25,12,53,-1.70
2011,02,25,12,54,-1.70
2011,02,25,12,55,-1.70
2011,02,25,12,56,-1.80
2011,02,25,12,57,-1.80
2011,02,25,12,58,-1.90
2011,02,25,12,59,-2.00
2011,02,25,13,00,-2.00
2011,02,25,13,01,-2.00
2011,02,25,13,02,-2.00
2011,02,25,13,03,-1.90
2011,02,25,13,04,-2.00
2011,02,25,13,05,-2.00
2011,02,25,13,06,-2.00
2011,02,25,13,07,-2.00
2011,02,25,13,08,-1.90
2011,02,25,13,09,-1.90
2011,02,25,13,10,-1.80
2011,02,25,13,11,-1.80
2011,02,25,13,12,-1.80
2011,02,25,13,13,-1.80
2011,02,25,13,14,-1.80
2011,02,25,13,15,-1.80
2011,02,25,13,16,-1.90
2011,02,25,13,17,-1.90
2011,02,25,13,18,-1.90
2011,02,25,13,19,-1.90
2011,02,25,13,20,-1.80
2011,02,25,13,21,-1.80
2011,02,25,13,22,-1.80
2011,02,25,13,23,-1.80
2011,02,25,13,24,-1.90
2011,02,25,13,25,-1.90
2011,02,25,13,26,-1.90
2011,02,25,13,27,-1.90
2011,02,25,13,28,-1.90
2011,02,25,13,29,-1.90
2011,02,25,13,30,-1.90
2011,02,25,13,31,-1.90
2011,02,25,13,32,-1.80
2011,02,25,13,33,-1.80
2011,02,25,13,34,-1.90
2011,02,25,13,35,-1.90
2011,02,25,13,36,-1.90
2011,02,25,13,37,-1.80
2011,02,25,13,38,-1.80
2011,02,25,13,39,-1.90
2011,02,25,13,40,-1.90
2011,02,25,13,41,-1.90
2011,02,25,13,42,-1.90
2011,02,25,13,43,-1.90
2011,02,25,13,44,-2.00
2011,02,25,13,45,-2.00
2011,02,25,13,46,-1.90
2011,02,25,13,47,-1.90
2011,02,25,13,48,-1.80
2011,02,25,13,49,-1.80
2011,02,25,13,50,-1.80
2011,02,25,13,51,-1.80
2011,02,25,13,52,-1.80
2011,02,25,13,53,-1.80
2011,02,25,13,54,-1.90
2011,02,25,13,55,-1.90
2011,02,25,13,56,-1.90
2011,02,25,13,57,-1.80
2011,02,25,13,58,-1.80
2011,02,25,13,59,-1.80
2011,02,25,14,00,-1.80
2011,02,25,14,01,-1.80
2011,02,25,14,02,-1.80
2011,02,25,14,03,-1.70
2011,02,25,14,04,-1.70
2011,02,25,14,05,-1.70
2011,02,25,14,06,-1.70
2011,02,25,14,07,-1.70
2011,02,25,14,08,-1.60
2011,02,25,14,09,-1.60
2011,02,25,14,10,-1.60
2011,02,25,14,11,-1.70
2011,02,25,14,12,-1.60
2011,02,25,14,13,-1.60
2011,02,25,14,14,-1.60
2011,02,25,14,15,-1.50
2011,02,25,14,16,-1.50
2011,02,25,14,17,-1.40
2011,02,25,14,18,-1.40
2011,02,25,14,19,-1.40
2011,02,25,14,20,-1.50
2011,02,25,14,21,-1.50
2011,02,25,14,22,-1.60
2011,02,25,14,23,-1.60
2011,02,25,14,24,-1.70
2011,02,25,14,25,-1.70
2011,02,25,14,26,-1.80
2011,02,25,14,27,-1.80
2011,02,25,14,28,-1.80
2011,02,25,14,29,-1.80
2011,02,25,14,30,-1.80
2011,02,25,14,31,-1.80
2011,02,25,14,32,-1.80
2011,02,25,14,33,-1.80
2011,02,25,14,34,-1.70
2011,02,25,14,35,-1.70
2011,02,25,14,36,-1.70
2011,02,25,14,37,-1.70
2011,02,25,14,38,-1.80
2011,02,25,14,39,-1.80
2011,02,25,14,40,-1.70
2011,02,25,14,41,-1.70
2011,02,25,14,42,-1.70
2011,02,25,14,43,-1.70
2011,02,25,14,44,-1.70
2011,02,25,14,45,-1.60
2011,02,25,14,46,-1.60
2011,02,25,14,47,-1.70
2011,02,25,14,48,-1.70
2011,02,25,14,49,-1.80
2011,02,25,14,50,-1.80
2011,02,25,14,51,-1.80
2011,02,25,14,52,-1.70
2011,02,25,14,53,-1.70
2011,02,25,14,54,-1.70
2011,02,25,14,55,-1.70
2011,02,25,14,56,-1.70
2011,02,25,14,57,-1.70
2011,02,25,14,58,-1.70
2011,02,25,14,59,-1.70
2011,02,25,15,00,-1.70
2011,02,25,15,01,-1.70
2011,02,25,15,02,-1.70
2011,02,25,15,03,-1.60
2011,02,25,15,04,-1.60
2011,02,25,15,05,-1.60
2011,02,25,15,06,-1.60
2011,02,25,15,07,-1.60
2011,02,25,15,08,-1.60
2011,02,25,15,09,-1.70
2011,02,25,15,10,-1.70
2011,02,25,15,11,-1.70
2011,02,25,15,12,-1.80
2011,02,25,15,13,-1.80
2011,02,25,15,14,-1.80
2011,02,25,15,15,-1.80
2011,02,25,15,16,-1.80
2011,02,25,15,17,-1.70
2011,02,25,15,18,-1.70
2011,02,25,15,19,-1.70
2011,02,25,15,20,-1.70
2011,02,25,15,21,-1.70
2011,02,25,15,22,-1.70
2011,02,25,15,23,-1.70
2011,02,25,15,24,-1.70
2011,02,25,15,25,-1.70
2011,02,25,15,26,-1.70
2011,02,25,15,27,-1.70
2011,02,25,15,28,-1.70
2011,02,25,15,29,-1.50
2011,02,25,15,30,-1.40
2011,02,25,15,31,-1.30
2011,02,25,15,32,-1.20
2011,02,25,15,33,-1.10
2011,02,25,15,34,-1.10
2011,02,25,15,35,-1.10
2011,02,25,15,36,-1.10
2011,02,25,15,37,-1.10
2011,02,25,15,38,-1.10
2011,02,25,15,39,-1.10
2011,02,25,15,40,-1.10
2011,02,25,15,41,-1.10
2011,02,25,15,42,-1.00
2011,02,25,15,43,-0.90
2011,02,25,15,44,-1.00
2011,02,25,15,45,-0.90
2011,02,25,15,46,-0.90
2011,02,25,15,47,-0.80
2011,02,25,15,48,-0.80
2011,02,25,15,49,-0.80
2011,02,25,15,50,-0.90
2011,02,25,15,51,-1.00
2011,02,25,15,52,-1.10
2011,02,25,15,53,-1.20
2011,02,25,15,54,-1.20
2011,02,25,15,55,-1.20
2011,02,25,15,56,-1.20
2011,02,25,15,57,-1.20
2011,02,25,15,58,-1.20
2011,02,25,15,59,-1.20
2011,02,25,16,00,-1.20
2011,02,25,16,01,-1.10
2011,02,25,16,02,-1.10
2011,02,25,16,03,-1.00
2011,02,25,16,04,-0.90
2011,02,25,16,05,-0.90
2011,02,25,16,06,-0.80
2011,02,25,16,07,-0.70
2011,02,25,16,08,-0.60
2011,02,25,16,09,-0.60
2011,02,25,16,10,-0.60
2011,02,25,16,11,-0.70
2011,02,25,16,12,-0.70
2011,02,25,16,13,-0.70
2011,02,25,16,14,-0.80
2011,02,25,16,15,-0.80
2011,02,25,16,16,-0.80
2011,02,25,16,17,-0.80
2011,02,25,16,18,-0.80
2011,02,25,16,19,-0.80
2011,02,25,16,20,-0.80
2011,02,25,16,21,-0.80
2011,02,25,16,22,-0.90
2011,02,25,16,23,-0.90
2011,02,25,16,24,-0.90
2011,02,25,16,25,-0.90
2011,02,25,16,26,-0.80
2011,02,25,16,27,-0.80
2011,02,25,16,28,-0.80
2011,02,25,16,29,-0.80
2011,02,25,16,30,-0.80
2011,02,25,16,31,-0.80
2011,02,25,16,32,-0.80
2011,02,25,16,33,-0.80
2011,02,25,16,34,-0.80
2011,02,25,16,35,-0.80
2011,02,25,16,36,-0.70
2011,02,25,16,37,-0.70
2011,02,25,16,38,-0.80
2011,02,25,16,39,-0.80
2011,02,25,16,40,-0.80
2011,02,25,16,41,-0.80
2011,02,25,16,42,-0.80
2011,02,25,16,43,-0.80
2011,02,25,16,44,-0.80
2011,02,25,16,45,-0.90
2011,02,25,16,46,-0.90
2011,02,25,16,47,-1.00
2011,02,25,16,48,-1.00
2011,02,25,16,49,-1.10
2011,02,25,16,50,-1.10
2011,02,25,16,51,-1.20
2011,02,25,16,52,-1.20
2011,02,25,16,53,-1.20
2011,02,25,16,54,-1.30
2011,02,25,16,55,-1.30
2011,02,25,16,56,-1.30
2011,02,25,16,57,-1.40
2011,02,25,16,58,-1.40
2011,02,25,16,59,-1.40
2011,02,25,17,00,-1.40
2011,02,25,17,01,-1.40
2011,02,25,17,02,-1.50
2011,02,25,17,03,-1.50
2011,02,25,17,04,-1.60
2011,02,25,17,05,-1.60
2011,02,25,17,06,-1.60
2011,02,25,17,07,-1.70
2011,02,25,17,08,-1.70
2011,02,25,17,09,-1.70
2011,02,25,17,10,-1.70
2011,02,25,17,11,-1.70
2011,02,25,17,12,-1.70
2011,02,25,17,13,-1.70
2011,02,25,17,14,-1.70
2011,02,25,17,15,-1.70
2011,02,25,17,16,-1.70
2011,02,25,17,17,-1.70
2011,02,25,17,18,-1.70
2011,02,25,17,19,-1.70